Location: Mountain Grove
(34.0887°N, 86.6172°W)
Time: 21:58:45
(UTC+00:00)

Cosmos 1842 Rocket - Pass Details

Date: 14 July 2020
Orbit: 605 x 635 km, 82.5° (Epoch: 08 August)

Event Time Altitude Azimuth Distance (km) Brightness Sun altitude
Rises 03:17:05 0° 346° (NNW) 2,864 8.0 -23.2°
Reaches altitude 10° 03:19:21 10° 341° (NNW) 1,956 7.1 -23.5°
Maximum altitude 03:23:30 49° 267° (W) 784 4.2 -24.0°
Enters shadow 03:24:16 43° 233° (SW) 850 4.2 -24.1°
